Location: Moscow
(55.7500°N, 37.5830°E)
Time: 21:01:43
(UTC+03:00)

Vanguard 2 Rocket - Pass Details

Date: 04 December 2021
Orbit: 554 x 3325 km, 32.9° (Epoch: 20 January)

Event Time Altitude Azimuth Distance (km) Brightness Sun altitude
Rises 20:46:49 0° 233° (SW) 3,974 10.6 -38.7°
Reaches altitude 10° 20:50:16 10° 215° (SW) 3,410 9.9 -39.2°
Enters shadow 20:52:39 15° 198° (SSW) 3,268 9.6 -39.5°
